Weather History for Crestview, FL

Change the Weather History Date:

Friday, December 27, 2013

  Actual Average Record
Temperature  
Mean Temperature 51 °F -  
Max Temperature 61 °F - - ()
Min Temperature 41 °F - - ()
Degree Days  
Heating Degree Days 14    
Growing Degree Days 1 (Base 50)    
Moisture  
Dew Point 35 °F    
Average Humidity 56    
Maximum Humidity 76    
Minimum Humidity 40    
Precipitation  
Precipitation 0.00 in - - ()
Sea Level Pressure  
Sea Level Pressure 30.32 in    
Wind  
Wind Speed 6 mph (NNE)    
Max Wind Speed 10 mph    
Max Gust Speed 16 mph    
Visibility 10 miles    
Events      
T = Trace of Precipitation, MM = Missing Value Source: NWS Daily Summary

Daily Weather History Graph

Daily Weather History Graph

Search for Another Location

Airport:

Trip Planner

Search our weather history database for the weather conditions in past years. The results will help you decide how hot, cold, wet, or windy it might be!

Date:

Astronomy

Dec. 27, 2013 Rise Set
Actual Time 6:42 AM CST 4:52 PM CST
Civil Twilight 6:15 AM CST 5:19 PM CST
Nautical Twilight 5:45 AM CST 5:49 PM CST
Astronomical Twilight 5:15 AM CST 6:18 PM CST
Moon 1:26 AM CST (12/27) 12:51 PM CST (12/27)
Length of Visible Light 11h 03m
Length of Day
10h 10m
Waning Crescent, 28% of the Moon is Illuminated
Dec 27
Waning Crescent
Jan 1
New
Jan 7
First Quarter
Jan 15
Full
Jan 23
Last Quarter

Hourly Weather History & Observations

Time (CST) Temp. Windchill Dew Point Humidity Pressure Visibility Wind Dir Wind Speed Gust Speed Precip Events Conditions
12:58 AM 43.5 °F - 33.6 °F 68% 30.30 in 10.0 mi NNE 2.3 mph - N/A   Clear
1:58 AM 42.4 °F 38.8 °F 34.7 °F 74% 30.30 in 10.0 mi North 5.8 mph - N/A   Scattered Clouds
2:23 AM 42.8 °F 40.1 °F 35.6 °F 76% 30.30 in 10.0 mi North 4.6 mph - N/A   Overcast
2:58 AM 43.5 °F 39.4 °F 34.3 °F 70% 30.32 in 10.0 mi North 6.9 mph - N/A   Mostly Cloudy
3:28 AM 44.6 °F 42.2 °F 32.0 °F 61% 30.29 in 10.0 mi NNE 4.6 mph - N/A   Scattered Clouds
3:58 AM 43.2 °F 40.5 °F 33.6 °F 69% 30.31 in 10.0 mi NNE 4.6 mph - N/A   Clear
4:58 AM 41.9 °F 37.5 °F 34.0 °F 73% 30.31 in 10.0 mi North 6.9 mph - N/A   Clear
5:58 AM 42.4 °F 37.5 °F 33.4 °F 70% 30.34 in 10.0 mi North 8.1 mph - N/A   Clear
6:58 AM 42.8 °F 39.3 °F 32.5 °F 67% 30.35 in 10.0 mi NNE 5.8 mph - N/A   Clear
7:39 AM 44.6 °F 40.7 °F 32.0 °F 61% 30.36 in 10.0 mi NNE 6.9 mph - N/A   Overcast
7:57 AM 44.6 °F 40.2 °F 31.6 °F 60% 30.37 in 10.0 mi NNE 8.1 mph - N/A   Overcast
7:58 AM 44.6 °F 40.2 °F 31.6 °F 60% 30.37 in 10.0 mi NNE 8.1 mph - N/A   Clear
8:55 AM 47.1 °F - 31.3 °F 54% 30.37 in 10.0 mi NE 5.8 mph - N/A   Mostly Cloudy
9:55 AM 50.4 °F - 31.3 °F 48% 30.37 in 10.0 mi NE 8.1 mph - N/A   Mostly Cloudy
10:55 AM 56.7 °F - 32.5 °F 40% 30.35 in 10.0 mi ENE 8.1 mph 16.1 mph N/A   Mostly Cloudy
11:55 AM 57.6 °F - 34.2 °F 41% 30.32 in 10.0 mi NE 8.1 mph - N/A   Mostly Cloudy
12:55 PM 59.0 °F - 35.6 °F 42% 30.30 in 10.0 mi NE 9.2 mph - N/A   Mostly Cloudy
1:55 PM 59.4 °F - 37.0 °F 43% 30.30 in 10.0 mi NNE 6.9 mph - N/A   Mostly Cloudy
2:55 PM 61.7 °F - 37.4 °F 41% 30.27 in 10.0 mi NE 9.2 mph - N/A   Mostly Cloudy
3:55 PM 60.4 °F - 37.0 °F 42% 30.29 in 10.0 mi NNE 10.4 mph - N/A   Mostly Cloudy
4:55 PM 56.1 °F - 39.2 °F 53% 30.30 in 10.0 mi North 6.9 mph - N/A   Mostly Cloudy
5:55 PM 54.7 °F - 38.1 °F 54% 30.31 in 10.0 mi North 6.9 mph - N/A   Mostly Cloudy
6:55 PM 54.0 °F - 36.5 °F 52% 30.32 in 10.0 mi NNE 8.1 mph - N/A   Mostly Cloudy
7:55 PM 53.2 °F - 35.8 °F 52% 30.32 in 10.0 mi NNE 5.8 mph - N/A   Mostly Cloudy
8:55 PM 52.7 °F - 35.8 °F 53% 30.32 in 10.0 mi NE 8.1 mph - N/A   Mostly Cloudy
9:55 PM 52.5 °F - 35.1 °F 51% 30.31 in 10.0 mi NE 8.1 mph - N/A   Mostly Cloudy
10:55 PM 53.1 °F - 35.2 °F 51% 30.29 in 10.0 mi East 6.9 mph - N/A   Overcast
11:55 PM 52.7 °F - 36.1 °F 53% 30.28 in 10.0 mi NE 5.8 mph - N/A   Overcast